Columbia Airport, CA

6:37 AM PDT on October 23, 2019 (GMT -0700)
Columbia Airport

Weather History for KO22 - August, 2019

Change the Weather History Date:

Wednesday, August 28, 2019

  Actual Average (WUND) Record (WUND)
Temperature  
Mean Temperature 80 °F -  
Max Temperature 96 °F - - (-1)
Min Temperature 64 °F - - (-1)
Cooling Degree Days 15    
Growing Degree Days 30 (Base 50)    
Moisture  
Dew Point 47 °F    
Average Humidity 36    
Maximum Humidity 68    
Minimum Humidity 10    
Precipitation  
Precipitation 0.00 in - - ()
Sea Level Pressure  
Sea Level Pressure 29.95 in    
Wind  
Wind Speed 2 mph (SW)    
Max Wind Speed 8 mph    
Max Gust Speed 14 mph    
Visibility 10 miles    
Events      
Averages and records for this station are not official NWS values.
T = Trace of Precipitation, MM = Missing Value Source: NWS Daily Summary

Daily Weather History Graph

Daily Weather History Graph

Search for Another Location

Airport or City:

Astronomy

Aug. 28, 2019 Rise Set
Actual Time 6:27 AM PDT 7:37 PM PDT
Civil Twilight 6:00 AM PDT 8:04 PM PDT
Nautical Twilight 5:28 AM PDT 8:36 PM PDT
Astronomical Twilight 4:54 AM PDT 9:10 PM PDT
Moon 4:09 AM PDT (8/28) 6:50 PM PDT (8/28)
Length of Visible Light 14h 03m
Length of Day
13h 09m
Waning Crescent, 4% of the Moon is Illuminated
Aug 28
Waning Crescent
Aug 30
New
Sep 5
First Quarter
Sep 13
Full
Sep 21
Last Quarter

Hourly Weather History & Observations

Time (PDT) Temp. Heat Index Dew Point Humidity Pressure Visibility Wind Dir Wind Speed Gust Speed Precip Events Conditions
12:15 AM 71.6 °F - 51.8 °F 50% 29.91 in 10.0 mi Variable 4.6 mph - N/A   Clear
12:35 AM 69.8 °F - 53.6 °F 56% 29.92 in 10.0 mi Calm Calm - N/A   Clear
12:55 AM 69.8 °F - 53.6 °F 56% 29.92 in 10.0 mi Calm Calm - N/A   Clear
1:15 AM 69.8 °F - 53.6 °F 56% 29.93 in 10.0 mi Calm Calm - N/A   Clear
1:35 AM 71.6 °F - 53.6 °F 53% 29.93 in 10.0 mi Calm Calm - N/A   Clear
1:55 AM 69.8 °F - 53.6 °F 56% 29.92 in 10.0 mi Calm Calm - N/A   Clear
2:15 AM 69.8 °F - 53.6 °F 56% 29.92 in 10.0 mi Calm Calm - N/A   Clear
2:35 AM 69.8 °F - 53.6 °F 56% 29.92 in 10.0 mi Calm Calm - N/A   Clear
2:55 AM 69.8 °F - 51.8 °F 53% 29.91 in 10.0 mi Calm Calm - N/A   Clear
3:15 AM 68.0 °F - 51.8 °F 56% 29.91 in 10.0 mi Calm Calm - N/A   Clear
3:35 AM 68.0 °F - 51.8 °F 56% 29.91 in 10.0 mi Calm Calm - N/A   Clear
3:55 AM 68.0 °F - 51.8 °F 56% 29.91 in 10.0 mi Calm Calm - N/A   Clear
4:15 AM 68.0 °F - 53.6 °F 60% 29.91 in 10.0 mi Calm Calm - N/A   Clear
4:35 AM 68.0 °F - 51.8 °F 56% 29.91 in 10.0 mi Calm Calm - N/A   Clear
4:55 AM 68.0 °F - 53.6 °F 60% 29.91 in 10.0 mi Calm Calm - N/A   Clear
5:15 AM 66.2 °F - 53.6 °F 64% 29.91 in 10.0 mi Calm Calm - N/A   Clear
5:35 AM 66.2 °F - 53.6 °F 64% 29.91 in 10.0 mi Calm Calm - N/A   Clear
5:55 AM 66.2 °F - 53.6 °F 64% 29.91 in 10.0 mi Calm Calm - N/A   Clear
6:15 AM 64.4 °F - 53.6 °F 68% 29.91 in 10.0 mi Calm Calm - N/A   Clear
6:35 AM 64.4 °F - 53.6 °F 68% 29.92 in 10.0 mi North - - N/A   Clear
6:55 AM 64.4 °F - 53.6 °F 68% 29.92 in 10.0 mi Calm Calm - N/A   Clear
7:15 AM 66.2 °F - 53.6 °F 64% 29.93 in 10.0 mi Calm Calm - N/A   Clear
7:35 AM 68.0 °F - 53.6 °F 60% 29.93 in 10.0 mi North - - N/A   Clear
7:55 AM 71.6 °F - 55.4 °F 57% 29.93 in 10.0 mi Calm Calm - N/A   Clear
8:15 AM 75.2 °F - 57.2 °F 53% 29.94 in 10.0 mi Calm Calm - N/A   Clear
8:35 AM 78.8 °F - 57.2 °F 47% 29.94 in 10.0 mi Calm Calm - N/A   Clear
8:55 AM 82.4 °F 81.7 °F 55.4 °F 39% 29.94 in 10.0 mi Calm Calm - N/A   Clear
9:15 AM 84.2 °F - 51.8 °F 33% 29.95 in 10.0 mi Calm Calm - N/A   Clear
9:35 AM 86.0 °F - 51.8 °F 31% 29.95 in 10.0 mi Calm Calm - N/A   Clear
9:55 AM 87.8 °F - 50.0 °F 27% 29.96 in 9.0 mi Calm Calm - N/A   Clear
10:15 AM 87.8 °F - 51.8 °F 29% 29.96 in 10.0 mi Variable 3.5 mph - N/A   Clear
10:35 AM 89.6 °F - 51.8 °F 27% 29.97 in 10.0 mi Variable 4.6 mph - N/A   Clear
10:55 AM 89.6 °F - 51.8 °F 27% 29.97 in 10.0 mi Variable 4.6 mph - N/A   Clear
11:15 AM 91.4 °F - 51.8 °F 26% 29.98 in 10.0 mi Variable 4.6 mph - N/A   Clear
11:35 AM 91.4 °F - 50.0 °F 24% 29.98 in 10.0 mi Variable 4.6 mph - N/A   Clear
11:55 AM 93.2 °F - 42.8 °F 17% 29.98 in 10.0 mi Variable 5.8 mph - N/A   Clear
12:15 PM 93.2 °F - 37.4 °F 14% 29.98 in 10.0 mi Variable 6.9 mph - N/A   Clear
12:35 PM 95.0 °F - 35.6 °F 12% 29.98 in 10.0 mi Variable 6.9 mph - N/A   Clear
12:55 PM 95.0 °F - 35.6 °F 12% 29.98 in 10.0 mi Variable 5.8 mph - N/A   Clear
1:15 PM 96.8 °F - 33.8 °F 11% 29.98 in 10.0 mi Variable 5.8 mph - N/A   Clear
1:35 PM 95.0 °F - 33.8 °F 12% 29.98 in 8.0 mi Variable 4.6 mph - N/A   Clear
1:55 PM 96.8 °F - 32.0 °F 10% 29.98 in 8.0 mi Variable 6.9 mph - N/A   Clear
2:15 PM 95.0 °F - 33.8 °F 12% 29.98 in 10.0 mi Variable 6.9 mph - N/A   Clear
2:35 PM 96.8 °F - 33.8 °F 11% 29.98 in 10.0 mi Variable 5.8 mph - N/A   Clear
2:55 PM 96.8 °F - 33.8 °F 11% 29.97 in 10.0 mi Variable 4.6 mph - N/A   Clear
3:15 PM 96.8 °F - 33.8 °F 11% 29.97 in 10.0 mi Variable 5.8 mph 13.8 mph N/A   Clear
3:35 PM 96.8 °F - 35.6 °F 12% 29.97 in 10.0 mi Variable 4.6 mph 11.5 mph N/A   Clear
3:55 PM 96.8 °F - 37.4 °F 13% 29.96 in 10.0 mi Variable 5.8 mph 12.7 mph N/A   Clear
4:15 PM 95.0 °F - 37.4 °F 13% 29.96 in 10.0 mi WSW 8.1 mph - N/A   Clear
4:35 PM 96.8 °F - 37.4 °F 13% 29.96 in 10.0 mi Variable 5.8 mph - N/A   Clear
4:55 PM 95.0 °F - 39.2 °F 14% 29.95 in 10.0 mi SW 8.1 mph - N/A   Clear
5:15 PM 93.2 °F - 37.4 °F 14% 29.96 in 10.0 mi Variable 5.8 mph - N/A   Clear
5:35 PM 93.2 °F - 37.4 °F 14% 29.96 in 10.0 mi Variable 5.8 mph - N/A   Clear
5:55 PM 93.2 °F - 39.2 °F 15% 29.96 in 10.0 mi SW 6.9 mph - N/A   Clear
6:15 PM 91.4 °F - 42.8 °F 18% 29.95 in 10.0 mi Variable 5.8 mph - N/A   Clear
6:35 PM 89.6 °F - 42.8 °F 20% 29.95 in 10.0 mi Variable 4.6 mph - N/A   Clear
6:55 PM 87.8 °F - 42.8 °F 21% 29.96 in 10.0 mi Variable 5.8 mph - N/A   Clear
7:15 PM 86.0 °F - 44.6 °F 23% 29.96 in 10.0 mi Variable 5.8 mph - N/A   Clear
7:55 PM 80.6 °F - 44.6 °F 28% 29.97 in 10.0 mi Calm Calm - N/A   Clear
8:15 PM 78.8 °F - 44.6 °F 30% 29.97 in 10.0 mi Calm Calm - N/A   Clear
8:35 PM 77.0 °F - 44.6 °F 32% 29.98 in 10.0 mi Calm Calm - N/A   Clear
8:55 PM 75.2 °F - 44.6 °F 34% 29.98 in 10.0 mi Calm Calm - N/A   Clear
9:15 PM 75.2 °F - 46.4 °F 36% 29.99 in 10.0 mi Calm Calm - N/A   Clear
9:35 PM 73.4 °F - 48.2 °F 41% 29.99 in 10.0 mi Calm Calm - N/A   Clear
9:55 PM 71.6 °F - 46.4 °F 41% 29.99 in 10.0 mi Calm Calm - N/A   Clear
10:15 PM 71.6 °F - 48.2 °F 43% 29.99 in 10.0 mi Calm Calm - N/A   Clear
10:35 PM 69.8 °F - 48.2 °F 46% 29.99 in 10.0 mi Calm Calm - N/A   Clear